Location: Artiguedieu
(43.5000°N, 0.5454°E)
Time: 20:58:24
(UTC+00:00)

Transit 2A - Pass Details

Date: 28 July 2021
Orbit: 594 x 964 km, 66.7° (Epoch: 28 September)

Event Time Altitude Azimuth Distance (km) Brightness Sun altitude
Rises 07:27:18 0° 220° (SW) 2,823 8.6 27.8°
Reaches altitude 10° 07:29:31 10° 224° (SW) 1,937 7.8 28.2°
Maximum altitude 07:33:47 60° 304° (NW) 714 6.0 28.9°
Drops below altitude 10° 07:38:21 10° 25° (NNE) 2,071 8.6 29.8°
Sets 07:40:48 0° 29° (NNE) 3,039 9.4 30.2°
